www.pogodaiklimat.ru

Погода и климат >> Архив погоды >> Россия >> Крым >> Белогорск


ПОГОДА в Белогорске

  • Прогноз погоды в Белогорске
  • Монитор погоды в Белогорске
  • Климат города

АРХИВ ПОГОДЫ в Белогорске

Время (UTC), дата Ветер
(напр.,м/с)
 
Видим.   Явления Облачность Т
(С)
Тd
(С)
f
(%)
Тe
(С)
Тes
(С)
Комфортность P
(гПа)
Po
(гПа)
Тmin
(С)
Tmax
(С)
R
(мм)
R24
(мм)
S
(см)
00 14.02 С 1 2000 м слабый ливневой снег 10/10 300 м
[Cb cap]
+0.4 -0.7 92 -2 -2 1019.5 993.9
03 14.02 С 1 2000 м слабый ливневой снег 10/10 300 м
[Cb cap]
+0.1 -0.8 94 -2 -2 1019.9 994.2 0.0 0.0
06 14.02 С 1 20 км {ливн. осадки} 9/9 600 м
[]
+0.2 -0.9 92 -2 -2 1019.4 993.8 -0.4 0.0
09 14.02 В 3 20 км 9/6 600 м
[Sc Ac trans Ci fib]
+6.1 +1.6 73 +3 +4 1018.6 993.5
12 14.02 ЮВ 4-10
{10}
20 км 9/8 600 м
[Sc Ci fib]
+7.1 +0.8 64 +4 +4 1017.7 992.7
15 14.02 ЮВ 4
{10}
20 км 9/8 300 м
[Sc Ci fib]
+7.2 +1.2 66 +4 +4 1016.8 991.9 0.0
18 14.02 В 3 20 км 10/10 600 м
[Sc]
+7.6 +1.8 67 +5 +5 1017.3 992.4 +8.6
21 14.02 В 5
{10}
20 км 10/10 600 м
[Sc]
+7.0 +2.8 75 +3 +3 1017.6 992.6
00 15.02 В 3
{10}
20 км 8/8 600 м
[Sc]
+7.0 +2.8 75 +4 +4 1017.4 992.4
03 15.02 В 3
{11}
20 км 9/9 600 м
[Sc]
+6.8 +3.5 79 +4 +4 1017.4 992.4 +6.3
06 15.02 ЮВ 1 10 км в посл. час ливневой дождь 10/8 600 м
[Cb cap Ac trans]
+6.3 +5.2 93 +5 +5 1019.2 994.1 +6.2 0.3
09 15.02 С 2 20 км 8/3 600 м
[Sc Ci fib]
+11.4 +6.3 71 +10 +14 1020.1 995.5
12 15.02 ЮВ 2 20 км в посл. час ливневой дождь 8/8 600 м
[Cb cap]
+11.0 +5.7 70 +10 +11 1020.0 995.3
15 15.02 ЮВ 2 20 км {ливн. осадки} 8/8 600 м
[Cb cap]
+9.0 +4.7 74 +7 +7 1021.4 996.5 0.3
18 15.02 ЮЗ 1 4000 м дымка {ливн. осадки} 10/10 600 м
[St]
+5.6 +5.1 97 +4 +4 1023.7 998.5 +12.2 0.0
21 15.02 штиль 0 1000 м дымка {туман} ясно +1.6 +1.3 98 0 0 1024.8 999.2
00 16.02 штиль 0 4000 м дымка {туман} ясно -0.3 -0.6 98 -2 -2 1025.6 999.8
03 16.02 С 1 20 км ясно -1.2 -1.5 98 -4 -4 1025.7 999.8 -1.2 0.1
06 16.02 штиль 0 200 м туман ?/? -1.2 -1.2 100 -3 -3 1026.7 1000.7 -1.6 0.1
09 16.02 СЗ 2 2000 м в посл. час туман 9/0
[Ci fib]
+3.9 +3.4 97 +1 +6 1025.9 1000.5
12 16.02 С 3 20 км {туман} 9/1 1000 м
[Cu hum Ci fib]
+9.5 +5.5 76 +7 +10 1024.4 999.5
15 16.02 С 3 20 км 8/3 600 м
[Sc Ci fib]
+5.0 +3.6 91 +1 +1 1024.5 999.2
18 16.02 СЗ 2 500 м туман ?/? +2.0 +2.0 100 -2 -2 1025.6 1000.0 +10.8
21 16.02 штиль 0 200 м туман ?/? +1.2 +1.2 100 -0 -0 1025.6 999.9
00 17.02 штиль 0 200 м туман ?/? -0.4 -0.4 100 -2 -2 1024.7 998.9
03 17.02 штиль 0 200 м туман ?/? -1.3 -1.3 100 -3 -3 1024.2 998.3 -1.3 0.3
06 17.02 СВ 1 200 м переохл. туман [диам. гололёда 1 мм] ?/? -1.6 -1.6 100 -4 -4 1024.5 998.6 -2.2 0.3
09 17.02 С 1 20 км {туман} [диам. гололёда 1 мм] 10/10 300 м
[St]
+2.8 +2.0 94 +1 +1 1023.2 997.7
12 17.02 СВ 1 1000 м дымка {туман} [диам. гололёда 1 мм] 10/10 200 м
[St]
+2.1 +1.3 94 0 0 1022.6 997.1
15 17.02 З 2 4000 м слабый ливневой дождь 10/10 300 м
[Cb cap]
+1.4 +0.9 96 -2 -2 1023.0 997.4 0.5
18 17.02 З 2 10 км {ливн. осадки} 10/10 300 м
[St]
+0.4 -0.2 96 -3 -3 1024.0 998.3 +3.5 0.5
21 17.02 штиль 0 10 км 10/10 300 м
[St]
+0.7 +0.2 96 -1 -1 1023.6 997.9
00 18.02 З 3 20 км 10/10 600 м
[Sc]
+1.7 +0.6 92 -3 -3 1023.2 997.6
03 18.02 ЮЗ 2 20 км 10/10 600 м
[Sc]
+1.4 +0.6 94 -2 -2 1023.1 997.5 +0.2 0.0
06 18.02 З 1 10 км {ливн. осадки} 10/10 300 м
[St]
+1.4 0.0 90 -1 -1 1023.8 998.2 +0.2 0.0
09 18.02 З 2 20 км 9/9 600 м
[Sc]
+2.4 -1.9 73 -1 0 1023.0 997.5
12 18.02 С 2 20 км 8/8 600 м
[Sc]
+3.9 -1.0 70 +1 +2 1022.5 997.1
15 18.02 СВ 2 20 км 9/9 600 м
[Sc]
+3.0 -1.1 74 0 0 1022.6 997.1 0.0
18 18.02 СВ 2 20 км 10/10 600 м
[Sc]
+1.6 -1.5 80 -2 -2 1023.0 997.4 +4.4
21 18.02 С 1 20 км 10/10 600 м
[Sc]
+1.1 -1.2 85 -1 -1 1022.7 997.1
00 19.02 С 1 20 км 10/10 600 м
[Sc]
+0.8 -1.2 86 -1 -1 1022.8 997.1
03 19.02 штиль 0 20 км 10/10 600 м
[Sc]
+0.4 -1.0 90 -1 -1 1022.6 996.9 +0.4
06 19.02 штиль 0 10 км 9/6 600 м
[Sc Ac trans]
+0.8 -0.6 90 -0 0 1023.5 997.8 +0.2
09 19.02 С 1 20 км 9/3 600 м
[Cu Sc Ac trans]
+2.9 -2.6 67 +2 +5 1023.2 997.7
12 19.02 СЗ 2 20 км 9/9 600 м
[Sc]
+4.1 -3.1 59 +2 +2 1023.0 997.6
15 19.02 С 2 20 км 9/3 600 м
[Sc diur, vesp Ci]
+3.3 -3.1 63 +1 +1 1023.3 997.8
18 19.02 штиль 0 20 км 6/0
[Ci fib]
+0.7 -2.2 81 -0 -0 1024.1 998.4 +4.8
21 19.02 штиль 0 20 км ясно -1.5 -2.7 92 -3 -3 1023.6 997.7
00 20.02 СЗ 2 500 м туман ?/? -0.8 -0.8 100 -5 -5 1023.6 997.8
03 20.02 С 2 200 м туман ?/? -0.9 -0.9 100 -5 -5 1023.3 997.5 -1.5
06 20.02 С 2 дымка 10 баллов 96 998.7
09 20.02 СВ 3 крупа н/о 82 998.7
12 20.02 СВ 4 8 баллов 71 997.3
15 20.02 СВ 3 10 баллов 80 997.3 0.0
18 20.02 В 3 10 баллов 82 997.3 0.0
21 20.02 СВ 4 7 баллов 84 997.3

 

Местоположение метеостанции Белогорск (Крым, Россия): широта 45.05 долгота 34.60 высота над уровнем моря 205 м.

В архиве по умолчанию представлена погода в Белогорске за последнюю неделю. Архивные данные за месяц целиком и за предыдущие месяцы, начиная с января 2011 года, Вы можете получить, выбрав интересующий диапазон дат из раскрывающегося списка и нажав кнопку "Ввод!".

Внимание! Время в таблицах - всемирное. Для получения местного времени необходимо прибавить поправку, которая в Белогорске равна 3 ч.

Смотрите также архив погоды в соседних городах и на ближайших метеорологических станциях:

Погода в Ангарском Перевале (Крым, Россия) (39 км)
Погода в Симферополе город (Крым, Россия) (39 км)
Погода в Алуште (Крым, Россия) (45 км)
Погода в Нижнегорском (Крым, Россия) (46 км)
Погода в Симферополе (Крым, Россия) (50 км)
Погода в Карадаге (Крым, Россия) (50 км)
Погода в Стрелковом (Херсонская область, Украина) (56 км)
Погода в Почтовом (Крым, Россия) (57 км)
Погода в Феодосии (Крым, Россия) (61 км)
Погода в Владиславовке (Крым, Россия) (63 км)

Пояснения к столбцам:

Ветер - указаны скорость ветра в м/с - средняя за 10 мин, порывы в срок и между сроками (в фигурных скобках) и направление, откуда дует ветер: С - северный, СВ - северо-восточный, В - восточный, ЮВ - юго-восточный, Ю - южный, ЮЗ - юго-западный, З - западный, СЗ - северо-западный.
Видимость - горизонтальная дальность видимости в метрах или километрах. При видимости от 1 до 10 км при отсутствии осадков обычно наблюдается дымка, при ухудшении видимости до 1 км и менее - туман. В сухую погоду видимость может ухудшаться дымом, пылью или мглою.
Явления - указаны атмосферные явления, наблюдавшиеся в срок или в последний час перед сроком; фигурными скобками обозначены явления, наблюдавшиеся между сроками (за 1-3 часа до срока); квадратными скобками обозначены град или гололедные отложения с указанием их диаметра в мм.
Облачность - указаны через наклонную черту общая и нижняя облачность в баллах и высота нижней границы облаков в метрах; квадратными скобками обозначены формы облаков: Ci - перистые, Cs - перисто-слоистые, Cc - перисто-кучевые, Ac - высококучевые, As - высокослоистые, Sc - слоисто-кучевые, Ns - слоисто-дождевые, Cu - кучевые, Cb - кучево-дождевые. Подробнее классификацию облаков см. в Атласе облаков (PDF).
T - Температура воздуха - температура, измеренная на высоте 2 м над землей.
Td - Температура точки росы - температура, при понижении до которой содержащийся в воздухе водяной пар достигнет насыщения.
f - Относительная влажность воздуха - влажноcть воздуха, измеренная на высоте 2 м над землей.
Te - Эффективная температура - температура, которую ощущает одетый по сезону человек в тени. Характеристика душности погоды. При расчете учитывается влияние влажности воздуха и скорости ветра на теплоощущения человека.
Tes - Эффективная температура на солнце - температура, которую ощущает человек, с поправкой на солнечный нагрев. Характеристика знойности погоды. Зависит от высоты солнца над горизонтом, облачности и скорости ветра. Ночью, в пасмурную погоду, а также при ветре 12 м/с и более поправка равна нулю.
P - Атмосферное давление - приведенное к уровню моря атмосферное давление.
Po - Атмосферное давление - измеренное на уровне метеостанции атмосферное давление.
Tmin - Минимальная температура - минимум температуры воздуха на высоте 2 м над землей.
Tmax - Максимальная температура - максимум температуры воздуха на высоте 2 м над землей.
R - Количество осадков - Количество выпавших осадков за период времени, мм. При наведении курсора мыши на число - период времени, за который выпало указанное количество осадков.
R24 - Количество осадков - Количество выпавших осадков за 24 часа, мм.
S - Снежный покров - Высота снежного покрова, см. При наведении курсора мыши на число - состояние снежного покрова и степень покрытия местности в баллах.